When you browse on this site, cookies collect data to enhance your experience and personalize the content and advertising you see.
Visit our Privacy Policy to learn more. By continuing to use the site, you agree to this use of cookies and data.
  • In Hungary
  • List of Countries
  • For 7 days
  • Water Temperature
  • Satellite Maps
  • Weather Map
  • News
  • Weather Widgets
  • user-avatar
    Login

    Hourly Weather Soto la Marina

    Today, 16 February, Saturday

    Time Temperature Precipitation Wind Pressure Humidity
    00:00 +23°C° 0 mm 1 mps 753 mmHg 90%
    01:00 +23°C° 0 mm 1 mps 752 mmHg 89%
    02:00 +23°C° 0 mm 1 mps 752 mmHg 89%
    03:00 +23°C° 0 mm 1 mps 752 mmHg 88%
    04:00 +23°C° 0 mm 1 mps 752 mmHg 87%
    05:00 +23°C° 0 mm 1 mps 751 mmHg 85%
    06:00 +24°C° 0 mm 1 mps 751 mmHg 78%
    07:00 +26°C° 0 mm 1 mps 751 mmHg 70%
    08:00 +28°C° 0 mm 1 mps 751 mmHg 63%
    09:00 +30°C° 0 mm 2 mps 751 mmHg 55%
    10:00 +34°C° 0 mm 3 mps 751 mmHg 47%
    11:00 +37°C° 0 mm 3 mps 750 mmHg 39%
    12:00 +37°C° 0 mm 4 mps 750 mmHg 39%
    13:00 +38°C° 0 mm 4 mps 749 mmHg 38%
    14:00 +39°C° 0 mm 5 mps 748 mmHg 38%
    15:00 +36°C° 0 mm 5 mps 748 mmHg 47%
    16:00 +34°C° 0 mm 5 mps 748 mmHg 56%
    17:00 +30°C° 0 mm 5 mps 748 mmHg 65%
    18:00 +29°C° 0 mm 4 mps 748 mmHg 72%
    19:00 +27°C° 0 mm 4 mps 749 mmHg 79%
    20:00 +25°C° 0 mm 3 mps 749 mmHg 86%
    21:00 +25°C° 0 mm 3 mps 749 mmHg 83%
    22:00 +25°C° 0 mm 3 mps 749 mmHg 80%
    23:00 +25°C° 0 mm 3 mps 749 mmHg 78%

    Tomorrow, 17 February, Sunday

    Time Temperature Precipitation Wind Pressure Humidity
    00:00 +25°C° 0 mm 3 mps 749 mmHg 77%
    01:00 +25°C° 0 mm 3 mps 748 mmHg 77%
    02:00 +26°C° 0 mm 3 mps 748 mmHg 76%
    03:00 +25°C° 0 mm 2 mps 748 mmHg 79%
    04:00 +25°C° 0 mm 2 mps 748 mmHg 82%
    05:00 +24°C° 0 mm 1 mps 749 mmHg 84%
    06:00 +25°C° 0 mm 1 mps 749 mmHg 80%
    07:00 +27°C° 0 mm 1 mps 750 mmHg 75%
    08:00 +28°C° 0 mm 1 mps 751 mmHg 71%
    09:00 +30°C° 0 mm 2 mps 751 mmHg 63%
    10:00 +33°C° 0 mm 3 mps 751 mmHg 56%
    11:00 +35°C° 0 mm 4 mps 752 mmHg 49%
    12:00 +35°C° 0 mm 5 mps 751 mmHg 51%
    13:00 +34°C° 0 mm 7 mps 751 mmHg 53%
    14:00 +34°C° 0 mm 8 mps 750 mmHg 56%
    15:00 +32°C° 0 mm 7 mps 751 mmHg 61%
    16:00 +29°C° 0 mm 6 mps 751 mmHg 66%
    17:00 +28°C° 0 mm 5 mps 751 mmHg 72%
    18:00 +26°C° 0 mm 5 mps 752 mmHg 73%
    19:00 +25°C° 0 mm 4 mps 753 mmHg 74%
    20:00 +24°C° 0 mm 3 mps 754 mmHg 76%
    21:00 +22°C° 0 mm 3 mps 755 mmHg 72%
    22:00 +22°C° 0 mm 3 mps 755 mmHg 69%
    23:00 +21°C° 0 mm 2 mps 756 mmHg 66%

    Day after tomorrow, 18 February, Monday

    Time Temperature Precipitation Wind Pressure Humidity
    00:00 +21°C° 0 mm 2 mps 755 mmHg 65%
    01:00 +21°C° 0 mm 2 mps 755 mmHg 64%
    02:00 +21°C° 0 mm 3 mps 755 mmHg 63%
    03:00 +21°C° 0 mm 2 mps 755 mmHg 65%
    04:00 +21°C° 0 mm 2 mps 755 mmHg 66%
    05:00 +20°C° 0 mm 2 mps 755 mmHg 67%
    06:00 +21°C° 0 mm 2 mps 756 mmHg 66%
    07:00 +21°C° 0 mm 3 mps 757 mmHg 64%
    08:00 +21°C° 0 mm 3 mps 757 mmHg 63%
    09:00 +24°C° 0 mm 3 mps 757 mmHg 61%
    10:00 +26°C° 0 mm 3 mps 757 mmHg 59%
    11:00 +27°C° 0 mm 3 mps 757 mmHg 57%
    12:00 +28°C° 0 mm 3 mps 757 mmHg 57%
    13:00 +29°C° 0 mm 4 mps 756 mmHg 57%
    14:00 +30°C° 0 mm 4 mps 755 mmHg 56%
    15:00 +28°C° 0 mm 4 mps 755 mmHg 61%
    16:00 +27°C° 0 mm 4 mps 754 mmHg 65%
    17:00 +26°C° 0 mm 4 mps 754 mmHg 70%
    18:00 +24°C° 0 mm 3 mps 755 mmHg 75%
    19:00 +23°C° 0 mm 2 mps 756 mmHg 81%
    20:00 +22°C° 0 mm 1 mps 756 mmHg 87%
    21:00 +21°C° 0 mm 1 mps 756 mmHg 88%
    22:00 +21°C° 0 mm 1 mps 756 mmHg 89%
    23:00 +21°C° 0 mm 1 mps 756 mmHg 90%

    19 February, Tuesday

    Time Temperature Precipitation Wind Pressure Humidity
    00:00 +21°C° 0 mm 1 mps 755 mmHg 91%
    01:00 +19°C° 0 mm 0 mps 755 mmHg 92%
    02:00 +18°C° 0 mm 0 mps 754 mmHg 93%
    03:00 +18°C° 0 mm 0 mps 754 mmHg 94%
    04:00 +18°C° 0 mm 0 mps 754 mmHg 95%
    05:00 +18°C° 0 mm 0 mps 753 mmHg 95%
    06:00 +22°C° 0 mm 1 mps 754 mmHg 90%
    07:00 +23°C° 0 mm 1 mps 754 mmHg 85%
    08:00 +24°C° 0 mm 1 mps 755 mmHg 80%
    09:00 +27°C° 0 mm 2 mps 754 mmHg 71%
    10:00 +29°C° 0 mm 2 mps 754 mmHg 63%
    11:00 +31°C° 0 mm 3 mps 754 mmHg 55%
    12:00 +33°C° 0 mm 3 mps 753 mmHg 53%
    13:00 +34°C° 0 mm 4 mps 751 mmHg 51%
    14:00 +35°C° 0 mm 4 mps 750 mmHg 50%
    15:00 +33°C° 0 mm 5 mps 750 mmHg 57%
    16:00 +30°C° 0 mm 5 mps 750 mmHg 65%
    17:00 +28°C° 0 mm 5 mps 750 mmHg 72%
    18:00 +27°C° 0 mm 4 mps 751 mmHg 79%
    19:00 +25°C° 0 mm 4 mps 751 mmHg 85%
    20:00 +24°C° 0 mm 3 mps 752 mmHg 91%
    21:00 +24°C° 0 mm 2 mps 752 mmHg 92%
    22:00 +24°C° 0 mm 2 mps 752 mmHg 92%
    23:00 +23°C° 0 mm 2 mps 752 mmHg 93%

    20 February, Wednesday

    Time Temperature Precipitation Wind Pressure Humidity
    00:00 +23°C° 0 mm 2 mps 752 mmHg 93%
    01:00 +23°C° 0 mm 2 mps 751 mmHg 94%
    02:00 +23°C° 0 mm 2 mps 751 mmHg 94%
    03:00 +22°C° 0 mm 1 mps 751 mmHg 95%
    04:00 +22°C° 0 mm 1 mps 751 mmHg 95%
    05:00 +22°C° 0 mm 1 mps 751 mmHg 95%
    06:00 +24°C° 0 mm 1 mps 751 mmHg 90%
    07:00 +25°C° 0 mm 1 mps 752 mmHg 84%
    08:00 +27°C° 0 mm 1 mps 752 mmHg 79%
    09:00 +28°C° 0 mm 1 mps 752 mmHg 72%
    10:00 +30°C° 0 mm 1 mps 752 mmHg 66%
    11:00 +31°C° 0 mm 2 mps 752 mmHg 59%
    12:00 +32°C° 0 mm 2 mps 751 mmHg 58%
    13:00 +33°C° 0 mm 3 mps 750 mmHg 57%
    14:00 +34°C° 0 mm 4 mps 749 mmHg 56%
    15:00 +32°C° 0 mm 4 mps 749 mmHg 64%
    16:00 +30°C° 0 mm 4 mps 749 mmHg 72%
    17:00 +28°C° 0 mm 4 mps 749 mmHg 80%
    18:00 +27°C° 0 mm 3 mps 750 mmHg 85%
    19:00 +26°C° 0 mm 2 mps 751 mmHg 90%
    20:00 +25°C° 0 mm 1 mps 752 mmHg 95%
    21:00 +24°C° 0 mm 1 mps 752 mmHg 96%
    22:00 +22°C° 0 mm 0 mps 752 mmHg 96%
    23:00 +22°C° 0 mm 0 mps 752 mmHg 97%

    21 February, Thursday

    Time Temperature Precipitation Wind Pressure Humidity
    00:00 +22°C° 0 mm 0 mps 752 mmHg 97%
    01:00 +21°C° 0 mm 0 mps 752 mmHg 97%
    02:00 +21°C° 0 mm 0 mps 751 mmHg 97%
    03:00 +21°C° 0 mm 0 mps 752 mmHg 97%
    04:00 +21°C° 0 mm 0 mps 752 mmHg 97%
    05:00 +21°C° 0 mm 0 mps 752 mmHg 97%
    06:00 +23°C° 0 mm 1 mps 753 mmHg 94%
    07:00 +24°C° 0 mm 1 mps 753 mmHg 90%
    08:00 +25°C° 0 mm 1 mps 754 mmHg 87%
    09:00 +27°C° 0 mm 1 mps 754 mmHg 79%
    10:00 +28°C° 0 mm 2 mps 754 mmHg 72%
    11:00 +30°C° 0 mm 2 mps 754 mmHg 65%
    12:00 +31°C° 0 mm 3 mps 753 mmHg 61%
    13:00 +33°C° 0 mm 3 mps 752 mmHg 57%
    14:00 +34°C° 0 mm 4 mps 751 mmHg 53%
    15:00 +32°C° 0 mm 4 mps 751 mmHg 61%
    16:00 +29°C° 0 mm 4 mps 751 mmHg 68%
    17:00 +27°C° 0 mm 4 mps 751 mmHg 75%
    18:00 +26°C° 0 mm 3 mps 752 mmHg 82%
    19:00 +24°C° 0 mm 2 mps 753 mmHg 89%
    20:00 +23°C° 0 mm 1 mps 754 mmHg 95%
    21:00 +21°C° 0 mm 0 mps 754 mmHg 95%
    22:00 +21°C° 0 mm 0 mps 754 mmHg 95%
    23:00 +22°C° 0 mm 0 mps 754 mmHg 95%
    Show more